DateTime,Index
2004090218,0.0
2004090300,0.0
2004090306,1225.0
2004090312,1600.0
2004090318,2025.0
2004090400,2025.0
2004090406,2500.0
2004090412,2500.0
2004090418,3025.0
2004090500,3600.0
2004090506,4225.0
2004090512,7225.0
2004090518,12100.0
2004090600,13225.0
2004090606,12100.0
2004090612,12100.0
2004090618,8100.0
2004090700,8100.0
2004090706,9025.0
2004090712,10000.0
2004090718,11025.0
2004090800,13225.0
2004090806,14400.0
2004090812,14400.0
2004090818,14400.0
2004090900,16900.0
2004090906,19600.0
2004090912,19600.0
2004090918,16900.0
2004091000,16900.0
2004091006,15625.0
2004091012,15625.0
2004091018,14400.0
2004091100,18225.0
2004091106,16900.0
2004091112,15625.0
2004091118,21025.0
2004091200,21025.0
2004091206,18225.0
2004091212,18225.0
2004091218,16900.0
2004091300,19600.0
2004091306,19600.0
2004091312,19600.0
2004091318,19600.0
2004091400,19600.0
2004091406,19600.0
2004091412,15625.0
2004091418,14400.0
2004091500,14400.0
2004091506,14400.0
2004091512,13225.0
2004091518,13225.0
2004091600,12100.0
2004091606,11025.0
2004091612,4900.0
2004091618,2500.0
2004091700,0.0
2004091706,0.0
2004091712,0.0
2004091718,0.0
2004091800,0.0
2004091806,0.0
2004091812,0.0
2004091818,0.0
2004091900,1225.0
2004091906,1225.0
2004091912,1225.0
2004091918,1225.0
2004092000,1225.0
2004092006,1225.0
2004092012,0.0
2004092018,0.0
2004092100,0.0
2004092106,0.0
2004092112,0.0
2004092118,0.0
2004092200,0.0
2004092206,0.0
2004092212,0.0
2004092218,0.0
2004092300,1225.0
2004092306,1225.0
2004092312,2500.0
2004092318,1600.0
2004092400,0.0
2004092406,0.0
